| time (UTC) | temp F | wind direction | speed knots | gust knots | rain 1hr in | rain 24hr in | rain mn in | humidity % | barometer mb |
| 20260901182316 | 78 | 170 | 3.5 | 5.2 | 0.00 | 0.00 | 0.00 | 64 | 1015.5 |
| 20260901181816 | 78 | 170 | 4.3 | 8.7 | 0.00 | 0.00 | 0.00 | 64 | 1015.5 |
| 20260901181336 | 78 | 0.0 | 0.9 | 0.00 | 0.00 | 0.00 | 64 | 1015.5 | |
| 20260901180821 | 78 | 283 | 2.6 | 3.5 | 0.00 | 0.00 | 0.00 | 62 | 1015.6 |
| 20260901180316 | 78 | 260 | 0.9 | 5.2 | 0.00 | 0.00 | 0.00 | 65 | 1015.5 |
| 20260901175836 | 77 | 0.0 | 0.9 | 0.00 | 0.00 | 0.00 | 65 | 1015.5 | |
| 20260901175316 | 77 | 305 | 1.7 | 3.5 | 0.00 | 0.00 | 0.00 | 66 | 1015.5 |
| 20260901174816 | 76 | 0.0 | 0.0 | 0.00 | 0.00 | 0.00 | 68 | 1015.5 | |
| 20260901174336 | 75 | 0.0 | 0.9 | 0.00 | 0.00 | 0.00 | 69 | 1015.6 | |
| 20260901173816 | 75 | 215 | 3.5 | 6.1 | 0.00 | 0.00 | 0.00 | 69 | 1015.6 |
| 20260901173316 | 75 | 305 | 1.7 | 2.6 | 0.00 | 0.00 | 0.00 | 69 | 1015.6 |
| 20260901172816 | 75 | 260 | 2.6 | 4.3 | 0.00 | 0.00 | 0.00 | 69 | 1015.5 |
| 20260901172316 | 75 | 148 | 3.5 | 4.3 | 0.00 | 0.00 | 0.00 | 69 | 1015.4 |
| 20260901171816 | 75 | 103 | 1.7 | 2.6 | 0.00 | 0.00 | 0.00 | 70 | 1015.5 |
| 20260901171356 | 75 | 148 | 1.7 | 3.5 | 0.00 | 0.00 | 0.00 | 71 | 1015.4 |
| 20260901170816 | 75 | 283 | 2.6 | 4.3 | 0.00 | 0.00 | 0.00 | 70 | 1015.4 |
| 20260901170316 | 75 | 238 | 0.9 | 1.7 | 0.00 | 0.00 | 0.00 | 70 | 1015.4 |
| 20260901165816 | 74 | 0.0 | 0.0 | 0.00 | 0.00 | 0.00 | 72 | 1015.4 | |
| 20260901165316 | 74 | 148 | 0.9 | 1.7 | 0.00 | 0.00 | 0.00 | 73 | 1015.4 |
| 20260901164836 | 73 | 0.0 | 1.7 | 0.00 | 0.00 | 0.00 | 74 | 1015.4 | |
| 20260901164316 | 72 | 0.0 | 0.0 | 0.00 | 0.00 | 0.00 | 75 | 1015.4 | |
| 20260901163816 | 72 | 58 | 1.7 | 2.6 | 0.00 | 0.00 | 0.00 | 75 | 1015.5 |
| 20260901163316 | 72 | 0.0 | 1.7 | 0.00 | 0.00 | 0.00 | 77 | 1015.4 | |
| 20260901162816 | 72 | 35 | 0.9 | 4.3 | 0.00 | 0.00 | 0.00 | 77 | 1015.4 |
| 20260901162316 | 71 | 0.0 | 0.0 | 0.00 | 0.00 | 0.00 | 79 | 1015.4 | |
| 20260901161816 | 71 | 328 | 1.7 | 2.6 | 0.00 | 0.00 | 0.00 | 79 | 1015.5 |
| 20260901161316 | 70 | 0.0 | 0.9 | 0.00 | 0.00 | 0.00 | 80 | 1015.5 | |
| 20260901160816 | 69 | 328 | 0.9 | 1.7 | 0.00 | 0.00 | 0.00 | 81 | 1015.5 |
| 20260901160316 | 69 | 0.0 | 0.0 | 0.00 | 0.00 | 0.00 | 83 | 1015.3 | |
| 20260901155816 | 68 | 0.0 | 0.0 | 0.00 | 0.00 | 0.00 | 83 | 1015.3 | |
| 20260901155316 | 68 | 58 | 0.9 | 1.7 | 0.00 | 0.00 | 0.00 | 83 | 1015.4 |
| 20260901154816 | 68 | 58 | 0.9 | 1.7 | 0.00 | 0.00 | 0.00 | 83 | 1015.5 |
| 20260901154316 | 68 | 103 | 0.9 | 1.7 | 0.00 | 0.00 | 0.00 | 83 | 1015.3 |
| 20260901153815 | 68 | 0.0 | 0.9 | 0.00 | 0.00 | 0.00 | 83 | 1015.4 | |
| 20260901153316 | 68 | 0.0 | 1.7 | 0.00 | 0.00 | 0.00 | 84 | 1015.3 | |
| 20260901152837 | 67 | 13 | 0.9 | 1.7 | 0.00 | 0.00 | 0.00 | 84 | 1015.3 |
| 20260901152315 | 67 | 58 | 0.9 | 1.7 | 0.00 | 0.00 | 0.00 | 84 | 1015.3 |
| 20260901151816 | 67 | 80 | 0.9 | 1.7 | 0.00 | 0.00 | 0.00 | 84 | 1015.3 |
| 20260901151336 | 67 | 0.0 | 0.0 | 0.00 | 0.00 | 0.00 | 85 | 1015.3 | |
| 20260901150836 | 67 | 0.0 | 1.7 | 0.00 | 0.00 | 0.00 | 84 | 1015.2 | |
| 20260901150315 | 67 | 58 | 1.7 | 2.6 | 0.00 | 0.00 | 0.00 | 84 | 1015.1 |
| 20260901145815 | 67 | 58 | 1.7 | 2.6 | 0.00 | 0.00 | 0.00 | 84 | 1015.0 |
| 20260901145316 | 67 | 80 | 0.9 | 1.7 | 0.00 | 0.00 | 0.00 | 85 | 1014.9 |
| 20260901144815 | 67 | 80 | 0.9 | 1.7 | 0.00 | 0.00 | 0.00 | 86 | 1014.9 |
| 20260901144316 | 67 | 0.0 | 0.9 | 0.00 | 0.00 | 0.00 | 87 | 1014.8 | |
| 20260901143836 | 66 | 58 | 0.9 | 1.7 | 0.00 | 0.00 | 0.00 | 87 | 1014.7 |
| 20260901143315 | 66 | 80 | 1.7 | 2.6 | 0.00 | 0.00 | 0.00 | 88 | 1014.7 |
| 20260901142836 | 66 | 125 | 1.7 | 2.6 | 0.00 | 0.00 | 0.00 | 88 | 1014.8 |
| 20260901142316 | 66 | 103 | 0.9 | 1.7 | 0.00 | 0.00 | 0.00 | 89 | 1014.8 |
| 20260901141816 | 65 | 0.0 | 0.9 | 0.00 | 0.00 | 0.00 | 90 | 1014.8 | |
| 20260901141315 | 65 | 0.0 | 0.0 | 0.00 | 0.00 | 0.00 | 91 | 1014.7 | |
| 20260901140836 | 65 | 0.0 | 0.9 | 0.00 | 0.00 | 0.00 | 91 | 1014.6 | |
| 20260901140316 | 65 | 0.0 | 0.0 | 0.00 | 0.00 | 0.00 | 91 | 1014.6 | |
| 20260901135815 | 64 | 0.0 | 0.0 | 0.00 | 0.00 | 0.00 | 91 | 1014.5 | |
| 20260901135316 | 64 | 0.0 | 0.0 | 0.00 | 0.00 | 0.00 | 91 | 1014.4 | |
| 20260901134816 | 64 | 0.0 | 0.0 | 0.00 | 0.00 | 0.00 | 92 | 1014.4 | |
| 20260901134336 | 64 | 0.0 | 0.0 | 0.00 | 0.00 | 0.00 | 92 | 1014.4 | |
| 20260901133815 | 64 | 0.0 | 0.0 | 0.00 | 0.00 | 0.00 | 92 | 1014.4 | |
| 20260901133336 | 64 | 0.0 | 0.0 | 0.00 | 0.00 | 0.00 | 92 | 1014.4 | |
| 20260901132816 | 64 | 0.0 | 0.0 | 0.00 | 0.00 | 0.00 | 92 | 1014.3 | |
| 20260901132336 | 64 | 305 | 0.9 | 0.9 | 0.00 | 0.00 | 0.00 | 93 | 1014.2 |
| 20260901131802 | 63 | 0.0 | 0.0 | 0.00 | 0.00 | 0.00 | 93 | 1014.2 | |
| 20260901131715 | 63 | 0.0 | 0.0 | 0.00 | 0.00 | 0.00 | 93 | 1014.2 | |
| 20260901131216 | 63 | 0.0 | 0.0 | 0.00 | 0.00 | 0.00 | 93 | 1014.1 | |
| 20260901130715 | 63 | 0.0 | 0.0 | 0.00 | 0.00 | 0.00 | 93 | 1014.1 | |
| 20260901130215 | 63 | 0.0 | 0.0 | 0.00 | 0.00 | 0.00 | 93 | 1014.1 | |
| 20260901125715 | 63 | 0.0 | 0.0 | 0.00 | 0.00 | 0.00 | 92 | 1014.0 | |
| 20260901125216 | 62 | 0.0 | 0.0 | 0.00 | 0.00 | 0.00 | 93 | 1014.0 | |
| 20260901124716 | 62 | 0.0 | 0.0 | 0.00 | 0.00 | 0.00 | 92 | 1014.0 | |
| 20260901124215 | 62 | 0.0 | 0.0 | 0.00 | 0.00 | 0.00 | 92 | 1014.1 | |
| 20260901123715 | 62 | 0.0 | 0.0 | 0.00 | 0.00 | 0.00 | 92 | 1014.1 | |
| 20260901123215 | 62 | 0.0 | 0.0 | 0.00 | 0.00 | 0.00 | 93 | 1014.1 | |
| 20260901122715 | 62 | 0.0 | 0.0 | 0.00 | 0.00 | 0.00 | 92 | 1014.1 | |
| 20260901122215 | 62 | 0.0 | 0.0 | 0.00 | 0.00 | 0.00 | 92 | 1014.0 | |
| 20260901121715 | 62 | 0.0 | 0.0 | 0.00 | 0.00 | 0.00 | 91 | 1014.0 | |
| 20260901121216 | 62 | 0.0 | 0.0 | 0.00 | 0.00 | 0.00 | 92 | 1013.8 | |
| 20260901120715 | 62 | 0.0 | 0.0 | 0.00 | 0.00 | 0.00 | 91 | 1013.8 | |
| 20260901120216 | 62 | 0.0 | 0.0 | 0.00 | 0.00 | 0.00 | 91 | 1013.8 | |
| 20260901115715 | 63 | 0.0 | 0.0 | 0.00 | 0.00 | 0.00 | 91 | 1013.7 | |
| 20260901115216 | 63 | 0.0 | 0.0 | 0.00 | 0.00 | 0.00 | 91 | 1013.7 | |
| 20260901114715 | 63 | 0.0 | 0.0 | 0.00 | 0.00 | 0.00 | 91 | 1013.7 | |
| 20260901114235 | 63 | 0.0 | 0.0 | 0.00 | 0.00 | 0.00 | 91 | 1013.7 | |
| 20260901113755 | 63 | 0.0 | 0.0 | 0.00 | 0.00 | 0.00 | 91 | 1013.8 | |
| 20260901113215 | 63 | 0.0 | 0.0 | 0.00 | 0.00 | 0.00 | 90 | 1013.8 | |
| 20260901112736 | 63 | 0.0 | 0.0 | 0.00 | 0.00 | 0.00 | 91 | 1013.8 | |
| 20260901112215 | 63 | 0.0 | 0.0 | 0.00 | 0.00 | 0.00 | 91 | 1013.8 | |
| 20260901111715 | 63 | 0.0 | 0.0 | 0.00 | 0.00 | 0.00 | 90 | 1013.9 | |
| 20260901111215 | 63 | 0.0 | 0.0 | 0.00 | 0.00 | 0.00 | 90 | 1013.9 | |
| 20260901110715 | 63 | 0.0 | 0.0 | 0.00 | 0.00 | 0.00 | 90 | 1014.0 | |
| 20260901110235 | 64 | 0.0 | 0.0 | 0.00 | 0.00 | 0.00 | 90 | 1014.0 | |
| 20260901105715 | 64 | 0.0 | 0.0 | 0.00 | 0.00 | 0.00 | 90 | 1014.1 | |
| 20260901105215 | 64 | 0.0 | 0.0 | 0.00 | 0.00 | 0.00 | 90 | 1014.1 | |
| 20260901104715 | 64 | 0.0 | 0.0 | 0.00 | 0.00 | 0.00 | 89 | 1014.1 | |
| 20260901104215 | 64 | 0.0 | 0.0 | 0.00 | 0.00 | 0.00 | 90 | 1014.0 | |
| 20260901103715 | 64 | 0.0 | 0.0 | 0.00 | 0.00 | 0.00 | 90 | 1014.0 | |
| 20260901103215 | 64 | 0.0 | 0.0 | 0.00 | 0.00 | 0.00 | 90 | 1014.1 | |
| 20260901102715 | 64 | 0.0 | 0.0 | 0.00 | 0.00 | 0.00 | 89 | 1014.1 | |
| 20260901102235 | 64 | 0.0 | 0.0 | 0.00 | 0.00 | 0.00 | 89 | 1014.1 | |
| 20260901101735 | 64 | 0.0 | 0.0 | 0.00 | 0.00 | 0.00 | 90 | 1014.1 | |
| 20260901101236 | 64 | 0.0 | 0.9 | 0.00 | 0.00 | 0.00 | 90 | 1014.0 | |
| 20260901100715 | 64 | 305 | 0.9 | 0.9 | 0.00 | 0.00 | 0.00 | 90 | 1014.0 |
| 20260901100215 | 64 | 0.0 | 0.0 | 0.00 | 0.00 | 0.00 | 90 | 1014.1 | |
| 20260901095715 | 64 | 0.0 | 0.0 | 0.00 | 0.00 | 0.00 | 90 | 1014.1 | |
| 20260901095215 | 64 | 0.0 | 0.0 | 0.00 | 0.00 | 0.00 | 90 | 1014.0 | |
| 20260901094715 | 64 | 0.0 | 0.0 | 0.00 | 0.00 | 0.00 | 89 | 1014.1 | |
| 20260901094217 | 65 | 0.0 | 0.0 | 0.00 | 0.00 | 0.00 | 89 | 1014.1 | |
| 20260901093717 | 65 | 0.0 | 0.0 | 0.00 | 0.00 | 0.00 | 89 | 1014.0 | |
| 20260901093257 | 65 | 0.0 | 0.0 | 0.00 | 0.00 | 0.00 | 89 | 1014.0 | |
| 20260901092737 | 65 | 305 | 0.9 | 1.7 | 0.00 | 0.00 | 0.00 | 90 | 1014.0 |
| 20260901092237 | 65 | 0.0 | 0.9 | 0.00 | 0.00 | 0.00 | 90 | 1013.9 | |
| 20260901091717 | 65 | 0.0 | 0.0 | 0.00 | 0.00 | 0.00 | 90 | 1014.0 | |
| 20260901091217 | 65 | 0.0 | 0.9 | 0.00 | 0.00 | 0.00 | 90 | 1014.0 | |
| 20260901090737 | 65 | 0.0 | 0.0 | 0.00 | 0.00 | 0.00 | 90 | 1014.0 | |
| 20260901090215 | 65 | 283 | 0.9 | 2.6 | 0.00 | 0.00 | 0.00 | 91 | 1014.0 |
| 20260901085717 | 65 | 0.0 | 0.9 | 0.00 | 0.00 | 0.00 | 91 | 1013.9 | |
| 20260901085217 | 65 | 0.0 | 0.9 | 0.00 | 0.00 | 0.00 | 91 | 1014.0 | |
| 20260901084717 | 64 | 0.0 | 0.0 | 0.00 | 0.00 | 0.00 | 91 | 1014.0 | |
| 20260901084217 | 64 | 0.0 | 0.0 | 0.00 | 0.00 | 0.00 | 91 | 1014.1 | |
| 20260901083717 | 64 | 0.0 | 0.0 | 0.00 | 0.00 | 0.00 | 90 | 1014.2 | |
| 20260901083217 | 64 | 0.0 | 0.0 | 0.00 | 0.00 | 0.00 | 90 | 1014.2 | |
| 20260901082717 | 64 | 0.0 | 0.0 | 0.00 | 0.00 | 0.00 | 90 | 1014.2 | |
| 20260901082217 | 65 | 0.0 | 0.0 | 0.00 | 0.00 | 0.00 | 90 | 1014.2 | |
| 20260901081717 | 65 | 0.0 | 0.0 | 0.00 | 0.00 | 0.00 | 90 | 1014.2 | |
| 20260901081217 | 65 | 0.0 | 0.0 | 0.00 | 0.00 | 0.00 | 90 | 1014.2 | |
| 20260901080717 | 65 | 0.0 | 0.0 | 0.00 | 0.00 | 0.00 | 90 | 1014.1 | |
| 20260901080217 | 65 | 0.0 | 0.0 | 0.00 | 0.00 | 0.00 | 90 | 1014.1 | |
| 20260901075717 | 65 | 0.0 | 0.0 | 0.00 | 0.00 | 0.00 | 89 | 1014.2 | |
| 20260901075217 | 66 | 0.0 | 0.0 | 0.00 | 0.00 | 0.00 | 89 | 1014.1 | |
| 20260901074717 | 66 | 0.0 | 0.0 | 0.00 | 0.00 | 0.00 | 90 | 1014.2 | |
| 20260901074217 | 66 | 0.0 | 0.0 | 0.00 | 0.00 | 0.00 | 89 | 1014.2 | |
| 20260901073757 | 66 | 0.0 | 0.0 | 0.00 | 0.00 | 0.00 | 90 | 1014.2 | |
| 20260901073217 | 66 | 0.0 | 0.0 | 0.00 | 0.00 | 0.00 | 90 | 1014.1 | |
| 20260901072737 | 66 | 0.0 | 1.7 | 0.00 | 0.00 | 0.00 | 90 | 1014.1 | |
| 20260901072217 | 65 | 0.0 | 0.0 | 0.00 | 0.00 | 0.00 | 89 | 1014.1 | |
| 20260901071737 | 66 | 0.0 | 0.0 | 0.00 | 0.00 | 0.00 | 89 | 1014.1 | |
| 20260901071217 | 66 | 0.0 | 0.0 | 0.00 | 0.00 | 0.00 | 89 | 1014.1 | |
| 20260901070717 | 66 | 0.0 | 0.0 | 0.00 | 0.00 | 0.00 | 89 | 1014.2 | |
| 20260901070237 | 66 | 0.0 | 0.0 | 0.00 | 0.00 | 0.00 | 88 | 1014.3 | |
| 20260901065716 | 66 | 0.0 | 0.0 | 0.00 | 0.00 | 0.00 | 88 | 1014.2 | |
| 20260901065215 | 66 | 0.0 | 0.0 | 0.00 | 0.00 | 0.00 | 88 | 1014.3 | |
| 20260901064716 | 66 | 0.0 | 0.0 | 0.00 | 0.00 | 0.00 | 88 | 1014.2 | |
| 20260901064215 | 67 | 0.0 | 0.0 | 0.00 | 0.00 | 0.00 | 87 | 1014.0 | |
| 20260901063715 | 67 | 0.0 | 0.0 | 0.00 | 0.00 | 0.00 | 87 | 1014.1 | |
| 20260901063215 | 67 | 0.0 | 0.0 | 0.00 | 0.00 | 0.00 | 87 | 1013.9 | |
| 20260901062716 | 67 | 0.0 | 0.0 | 0.00 | 0.00 | 0.00 | 87 | 1013.8 | |
| 20260901062215 | 67 | 0.0 | 0.0 | 0.00 | 0.00 | 0.00 | 87 | 1013.7 | |
| 20260901061715 | 67 | 0.0 | 0.0 | 0.00 | 0.00 | 0.00 | 87 | 1013.7 | |
| 20260901061215 | 67 | 0.0 | 0.0 | 0.00 | 0.00 | 0.00 | 87 | 1013.7 | |
| 20260901060715 | 67 | 0.0 | 0.0 | 0.00 | 0.00 | 0.00 | 87 | 1013.8 | |
| 20260901060215 | 67 | 0.0 | 0.9 | 0.00 | 0.00 | 0.00 | 87 | 1013.9 | |
| 20260901055715 | 67 | 0.0 | 0.0 | 0.00 | 0.00 | 0.00 | 87 | 1013.8 | |
| 20260901055215 | 67 | 0.0 | 0.9 | 0.00 | 0.00 | 0.00 | 87 | 1013.8 | |
| 20260901054715 | 67 | 283 | 1.7 | 2.6 | 0.00 | 0.00 | 0.00 | 87 | 1013.7 |
| 20260901054215 | 67 | 0.0 | 0.9 | 0.00 | 0.00 | 0.00 | 87 | 1013.7 | |
| 20260901053715 | 68 | 238 | 0.9 | 2.6 | 0.00 | 0.00 | 0.00 | 87 | 1013.7 |
| 20260901053215 | 68 | 283 | 0.9 | 1.7 | 0.00 | 0.00 | 0.00 | 87 | 1013.7 |
| 20260901052715 | 68 | 260 | 1.7 | 2.6 | 0.00 | 0.00 | 0.00 | 87 | 1013.7 |
| 20260901052215 | 68 | 0.0 | 0.0 | 0.00 | 0.00 | 0.00 | 87 | 1013.6 | |
| 20260901051756 | 68 | 0.0 | 0.0 | 0.00 | 0.00 | 0.00 | 87 | 1013.6 | |
| 20260901051235 | 68 | 283 | 0.9 | 1.7 | 0.00 | 0.00 | 0.00 | 87 | 1013.5 |
| 20260901050735 | 68 | 305 | 0.9 | 2.6 | 0.00 | 0.00 | 0.00 | 86 | 1013.5 |
| 20260901050215 | 68 | 0.0 | 0.9 | 0.00 | 0.00 | 0.00 | 86 | 1013.5 | |
| 20260901045715 | 68 | 0.0 | 0.9 | 0.00 | 0.00 | 0.00 | 86 | 1013.4 | |
| 20260901045217 | 68 | 0.0 | 0.9 | 0.00 | 0.00 | 0.00 | 85 | 1013.3 | |
| 20260901044717 | 68 | 260 | 0.9 | 1.7 | 0.00 | 0.00 | 0.00 | 85 | 1013.4 |
| 20260901044217 | 68 | 260 | 0.9 | 1.7 | 0.00 | 0.00 | 0.00 | 85 | 1013.4 |
| 20260901043715 | 68 | 283 | 1.7 | 2.6 | 0.00 | 0.00 | 0.00 | 85 | 1013.4 |
| 20260901043217 | 68 | 238 | 0.9 | 1.7 | 0.00 | 0.00 | 0.00 | 85 | 1013.4 |
| 20260901042717 | 68 | 283 | 0.9 | 1.7 | 0.00 | 0.00 | 0.00 | 84 | 1013.4 |
| 20260901042217 | 68 | 0.0 | 1.7 | 0.00 | 0.00 | 0.00 | 84 | 1013.3 | |
| 20260901041735 | 69 | 215 | 0.9 | 1.7 | 0.00 | 0.00 | 0.00 | 84 | 1013.3 |
| 20260901041217 | 69 | 0.0 | 0.0 | 0.00 | 0.00 | 0.00 | 83 | 1013.2 | |
| 20260901040717 | 69 | 260 | 3.5 | 6.1 | 0.00 | 0.00 | 0.00 | 83 | 1013.0 |
| 20260901040217 | 69 | 260 | 2.6 | 3.5 | 0.00 | 0.00 | 0.00 | 83 | 1012.9 |
| 20260901035717 | 69 | 283 | 2.6 | 3.5 | 0.00 | 0.00 | 0.00 | 83 | 1012.9 |
| 20260901035237 | 69 | 283 | 0.9 | 2.6 | 0.00 | 0.00 | 0.00 | 83 | 1012.7 |
| 20260901034717 | 69 | 238 | 0.9 | 1.7 | 0.00 | 0.00 | 0.00 | 82 | 1012.7 |
| 20260901034217 | 69 | 283 | 1.7 | 2.6 | 0.00 | 0.00 | 0.00 | 82 | 1012.6 |
| 20260901033717 | 69 | 260 | 1.7 | 3.5 | 0.00 | 0.00 | 0.00 | 82 | 1012.6 |
| 20260901033215 | 69 | 283 | 1.7 | 2.6 | 0.00 | 0.00 | 0.00 | 82 | 1012.5 |
| 20260901032717 | 69 | 283 | 2.6 | 4.3 | 0.00 | 0.00 | 0.00 | 82 | 1012.5 |
| 20260901032217 | 69 | 305 | 1.7 | 3.5 | 0.00 | 0.00 | 0.00 | 82 | 1012.4 |
| 20260901031717 | 69 | 305 | 3.5 | 5.2 | 0.00 | 0.00 | 0.00 | 82 | 1012.4 |
| 20260901031257 | 69 | 260 | 3.5 | 5.2 | 0.00 | 0.00 | 0.00 | 82 | 1012.3 |
| 20260901030717 | 70 | 305 | 2.6 | 4.3 | 0.00 | 0.00 | 0.00 | 82 | 1012.2 |
| 20260901030217 | 70 | 283 | 3.5 | 4.3 | 0.00 | 0.00 | 0.00 | 81 | 1012.2 |
| 20260901025717 | 70 | 260 | 3.5 | 6.1 | 0.00 | 0.00 | 0.00 | 81 | 1012.1 |
| 20260901025237 | 70 | 283 | 4.3 | 8.7 | 0.00 | 0.00 | 0.00 | 81 | 1012.1 |
| 20260901024737 | 70 | 283 | 3.5 | 5.2 | 0.00 | 0.00 | 0.00 | 80 | 1012.0 |
| 20260901024217 | 70 | 260 | 4.3 | 7.0 | 0.00 | 0.00 | 0.00 | 80 | 1012.0 |
| 20260901023717 | 70 | 305 | 5.2 | 8.7 | 0.00 | 0.00 | 0.00 | 79 | 1012.0 |
| 20260901023217 | 71 | 283 | 3.5 | 6.1 | 0.00 | 0.00 | 0.00 | 79 | 1011.9 |
| 20260901022717 | 71 | 283 | 3.5 | 4.3 | 0.00 | 0.00 | 0.00 | 78 | 1011.9 |
| 20260901022217 | 71 | 283 | 4.3 | 7.0 | 0.00 | 0.00 | 0.00 | 78 | 1012.0 |
| 20260901021717 | 72 | 260 | 6.1 | 8.7 | 0.00 | 0.00 | 0.00 | 77 | 1012.0 |
| 20260901021217 | 72 | 260 | 5.2 | 8.7 | 0.00 | 0.00 | 0.00 | 77 | 1012.0 |
| 20260901020717 | 72 | 283 | 5.2 | 8.7 | 0.00 | 0.00 | 0.00 | 76 | 1012.1 |
| 20260901020217 | 73 | 283 | 3.5 | 4.3 | 0.00 | 0.00 | 0.00 | 75 | 1012.1 |
| 20260901015717 | 73 | 305 | 4.3 | 7.8 | 0.00 | 0.00 | 0.00 | 75 | 1012.0 |
| 20260901015237 | 73 | 260 | 3.5 | 5.2 | 0.00 | 0.00 | 0.00 | 74 | 1011.9 |
| 20260901014738 | 73 | 260 | 3.5 | 6.1 | 0.00 | 0.00 | 0.00 | 74 | 1011.9 |
| 20260901014217 | 74 | 260 | 6.1 | 8.7 | 0.00 | 0.00 | 0.00 | 73 | 1011.9 |
| 20260901013717 | 74 | 283 | 5.2 | 7.8 | 0.00 | 0.00 | 0.00 | 72 | 1011.9 |
| 20260901013237 | 74 | 283 | 4.3 | 6.1 | 0.00 | 0.00 | 0.00 | 71 | 1011.8 |
| 20260901012717 | 74 | 283 | 5.2 | 7.8 | 0.00 | 0.00 | 0.00 | 71 | 1011.9 |
| 20260901012217 | 74 | 260 | 7.0 | 8.7 | 0.00 | 0.00 | 0.00 | 71 | 1011.8 |
| 20260901011717 | 75 | 283 | 6.1 | 8.7 | 0.00 | 0.00 | 0.00 | 69 | 1011.8 |
| 20260901011217 | 75 | 283 | 7.8 | 12.2 | 0.00 | 0.00 | 0.00 | 68 | 1011.8 |
| 20260901010717 | 76 | 283 | 6.1 | 9.6 | 0.00 | 0.00 | 0.00 | 66 | 1011.9 |
| 20260901010237 | 76 | 305 | 5.2 | 8.7 | 0.00 | 0.00 | 0.00 | 66 | 1011.9 |
| 20260901005716 | 77 | 283 | 6.1 | 7.8 | 0.00 | 0.00 | 0.00 | 65 | 1011.9 |
| 20260901005237 | 77 | 260 | 7.0 | 10.4 | 0.00 | 0.00 | 0.00 | 65 | 1011.9 |
| 20260901004717 | 77 | 283 | 7.0 | 10.4 | 0.00 | 0.00 | 0.00 | 63 | 1011.9 |
| 20260901004217 | 78 | 260 | 4.3 | 6.1 | 0.00 | 0.00 | 0.00 | 63 | 1011.9 |
| 20260901003717 | 78 | 260 | 5.2 | 8.7 | 0.00 | 0.00 | 0.00 | 63 | 1011.9 |
| 20260901003237 | 78 | 260 | 6.1 | 8.7 | 0.00 | 0.00 | 0.00 | 63 | 1012.0 |
| 20260901002757 | 78 | 260 | 7.0 | 9.6 | 0.00 | 0.00 | 0.00 | 61 | 1011.9 |
| 20260901002217 | 78 | 260 | 6.1 | 9.6 | 0.00 | 0.00 | 0.00 | 64 | 1011.9 |
| 20260901001716 | 79 | 283 | 6.1 | 8.7 | 0.00 | 0.00 | 0.00 | 64 | 1011.9 |
| 20260901001338 | 79 | 283 | 6.1 | 9.6 | 0.00 | 0.00 | 0.00 | 62 | 1012.0 |
| 20260901000717 | 80 | 283 | 3.5 | 6.1 | 0.00 | 0.00 | 0.00 | 62 | 1012.0 |
| 20260901000218 | 80 | 305 | 5.2 | 9.6 | 0.00 | 0.00 | 0.00 | 61 | 1012.0 |
| 20260831235717 | 80 | 283 | 6.1 | 9.6 | 0.00 | 0.00 | 0.00 | 60 | 1012.0 |
| 20260831235236 | 81 | 283 | 6.1 | 9.6 | 0.00 | 0.00 | 0.00 | 57 | 1012.0 |
| 20260831234717 | 81 | 260 | 4.3 | 7.0 | 0.00 | 0.00 | 0.00 | 57 | 1011.9 |
| 20260831234217 | 82 | 283 | 4.3 | 6.1 | 0.00 | 0.00 | 0.00 | 57 | 1011.9 |
| 20260831233716 | 83 | 260 | 5.2 | 9.6 | 0.00 | 0.00 | 0.00 | 57 | 1011.9 |
| 20260831233216 | 82 | 305 | 4.3 | 7.8 | 0.00 | 0.00 | 0.00 | 57 | 1011.9 |
| 20260831232757 | 82 | 260 | 4.3 | 5.2 | 0.00 | 0.00 | 0.00 | 57 | 1011.9 |
| 20260831232217 | 82 | 283 | 2.6 | 3.5 | 0.00 | 0.00 | 0.00 | 57 | 1011.9 |
| 20260831231736 | 82 | 305 | 2.6 | 4.3 | 0.00 | 0.00 | 0.00 | 58 | 1011.8 |
| 20260831231237 | 82 | 260 | 3.5 | 6.1 | 0.00 | 0.00 | 0.00 | 58 | 1011.8 |
| 20260831230757 | 82 | 283 | 5.2 | 7.8 | 0.00 | 0.00 | 0.00 | 58 | 1011.8 |
| 20260831230237 | 82 | 260 | 4.3 | 5.2 | 0.00 | 0.00 | 0.00 | 58 | 1011.8 |
| 20260831225717 | 82 | 260 | 5.2 | 7.0 | 0.00 | 0.00 | 0.00 | 57 | 1011.9 |
| 20260831225217 | 82 | 283 | 5.2 | 7.8 | 0.00 | 0.00 | 0.00 | 58 | 1011.9 |
| 20260831224737 | 82 | 283 | 6.1 | 8.7 | 0.00 | 0.00 | 0.00 | 57 | 1011.9 |
| 20260831224216 | 83 | 260 | 6.1 | 7.8 | 0.00 | 0.00 | 0.00 | 56 | 1012.0 |
| 20260831223717 | 83 | 260 | 4.3 | 7.0 | 0.00 | 0.00 | 0.00 | 56 | 1012.0 |
| 20260831223236 | 84 | 305 | 4.3 | 6.1 | 0.00 | 0.00 | 0.00 | 55 | 1012.1 |
| 20260831222716 | 84 | 260 | 5.2 | 6.1 | 0.00 | 0.00 | 0.00 | 55 | 1012.1 |
| 20260831222216 | 84 | 238 | 0.9 | 0.9 | 0.00 | 0.00 | 0.00 | 52 | 1012.2 |
| 20260831221717 | 84 | 125 | 1.7 | 2.6 | 0.00 | 0.00 | 0.00 | 53 | 1012.2 |
| 20260831221216 | 85 | 148 | 4.3 | 6.1 | 0.00 | 0.00 | 0.00 | 53 | 1012.2 |
| 20260831220716 | 84 | 238 | 0.9 | 1.7 | 0.00 | 0.00 | 0.00 | 54 | 1012.3 |
| 20260831220216 | 84 | 283 | 2.6 | 3.5 | 0.00 | 0.00 | 0.00 | 55 | 1012.3 |
| 20260831215717 | 83 | 125 | 3.5 | 4.3 | 0.00 | 0.00 | 0.00 | 55 | 1012.3 |
| 20260831215216 | 84 | 148 | 3.5 | 6.1 | 0.00 | 0.00 | 0.00 | 55 | 1012.4 |
| 20260831214717 | 84 | 125 | 3.5 | 6.1 | 0.00 | 0.00 | 0.00 | 56 | 1012.5 |
| 20260831214217 | 84 | 148 | 3.5 | 5.2 | 0.00 | 0.00 | 0.00 | 55 | 1012.5 |
| 20260831213737 | 84 | 148 | 1.7 | 3.5 | 0.00 | 0.00 | 0.00 | 57 | 1012.6 |
| 20260831213216 | 83 | 193 | 4.3 | 7.8 | 0.00 | 0.00 | 0.00 | 57 | 1012.6 |
| 20260831212716 | 83 | 148 | 2.6 | 3.5 | 0.00 | 0.00 | 0.00 | 57 | 1012.7 |
| 20260831212216 | 82 | 125 | 2.6 | 4.3 | 0.00 | 0.00 | 0.00 | 58 | 1012.8 |
| 20260831211717 | 83 | 148 | 3.5 | 7.0 | 0.00 | 0.00 | 0.00 | 58 | 1012.9 |
| 20260831211236 | 83 | 148 | 3.5 | 5.2 | 0.00 | 0.00 | 0.00 | 59 | 1012.8 |
| 20260831210716 | 83 | 148 | 4.3 | 5.2 | 0.00 | 0.00 | 0.00 | 59 | 1012.9 |
| 20260831210216 | 82 | 193 | 4.3 | 6.1 | 0.00 | 0.00 | 0.00 | 59 | 1012.9 |
| 20260831205717 | 83 | 125 | 5.2 | 7.8 | 0.00 | 0.00 | 0.00 | 58 | 1012.8 |
| 20260831205237 | 83 | 170 | 3.5 | 6.1 | 0.00 | 0.00 | 0.00 | 58 | 1012.9 |
| 20260831204716 | 83 | 170 | 4.3 | 7.0 | 0.00 | 0.00 | 0.00 | 60 | 1012.9 |
| 20260831204237 | 82 | 170 | 2.6 | 4.3 | 0.00 | 0.00 | 0.00 | 62 | 1012.9 |
| 20260831203717 | 82 | 215 | 5.2 | 7.0 | 0.00 | 0.00 | 0.00 | 61 | 1012.9 |
| 20260831203216 | 82 | 125 | 3.5 | 6.1 | 0.00 | 0.00 | 0.00 | 61 | 1013.0 |
| 20260831202716 | 82 | 148 | 6.1 | 8.7 | 0.00 | 0.00 | 0.00 | 60 | 1013.0 |
| 20260831202256 | 83 | 148 | 5.2 | 9.6 | 0.00 | 0.00 | 0.00 | 61 | 1013.0 |
| 20260831201717 | 82 | 170 | 5.2 | 7.0 | 0.00 | 0.00 | 0.00 | 62 | 1013.1 |
| 20260831201236 | 82 | 148 | 3.5 | 6.1 | 0.00 | 0.00 | 0.00 | 62 | 1013.1 |
| 20260831200716 | 82 | 215 | 4.3 | 7.0 | 0.00 | 0.00 | 0.00 | 61 | 1013.1 |
| 20260831200216 | 82 | 148 | 2.6 | 5.2 | 0.00 | 0.00 | 0.00 | 62 | 1013.2 |
| 20260831195716 | 82 | 215 | 5.2 | 7.0 | 0.00 | 0.00 | 0.00 | 62 | 1013.2 |
| 20260831195216 | 82 | 170 | 4.3 | 7.8 | 0.00 | 0.00 | 0.00 | 63 | 1013.2 |
| 20260831194716 | 83 | 170 | 6.1 | 7.0 | 0.00 | 0.00 | 0.00 | 62 | 1013.2 |
| 20260831194216 | 82 | 260 | 4.3 | 5.2 | 0.00 | 0.00 | 0.00 | 62 | 1013.2 |
| 20260831193716 | 82 | 148 | 0.9 | 3.5 | 0.00 | 0.00 | 0.00 | 63 | 1013.3 |
| 20260831193216 | 82 | 170 | 4.3 | 7.0 | 0.00 | 0.00 | 0.00 | 62 | 1013.3 |
| 20260831192716 | 82 | 215 | 4.3 | 6.1 | 0.00 | 0.00 | 0.00 | 63 | 1013.3 |
| 20260831192236 | 83 | 170 | 3.5 | 5.2 | 0.00 | 0.00 | 0.00 | 62 | 1013.4 |
| 20260831191716 | 82 | 260 | 2.6 | 3.5 | 0.00 | 0.00 | 0.00 | 63 | 1013.4 |
| 20260831191236 | 82 | 260 | 1.7 | 4.3 | 0.00 | 0.00 | 0.00 | 63 | 1013.4 |
| 20260831190716 | 81 | 238 | 3.5 | 5.2 | 0.00 | 0.00 | 0.00 | 65 | 1013.5 |
| 20260831190216 | 81 | 283 | 1.7 | 3.5 | 0.00 | 0.00 | 0.00 | 64 | 1013.5 |
| 20260831185736 | 81 | 103 | 0.9 | 1.7 | 0.00 | 0.00 | 0.00 | 65 | 1013.5 |
| 20260831185216 | 81 | 238 | 2.6 | 5.2 | 0.00 | 0.00 | 0.00 | 64 | 1013.6 |
| 20260831184736 | 82 | 260 | 3.5 | 6.1 | 0.00 | 0.00 | 0.00 | 65 | 1013.6 |
| 20260831184216 | 81 | 215 | 1.7 | 2.6 | 0.00 | 0.00 | 0.00 | 65 | 1013.6 |
| 20260831183716 | 81 | 125 | 4.3 | 6.1 | 0.00 | 0.00 | 0.00 | 65 | 1013.6 |
| 20260831183216 | 81 | 148 | 3.5 | 7.0 | 0.00 | 0.00 | 0.00 | 65 | 1013.6 |
| 20260831182736 | 81 | 148 | 4.3 | 6.1 | 0.00 | 0.00 | 0.00 | 64 | 1013.6 |